Regional Weather Roundup
Issued by NWS Cleveland, OH

Home | Current Version | Previous Version | Graphics & Text | Print | Product List | Glossary On
Versions: 1 2 3 4 5 6 7 8 9 10 11 12 13 14 15 16 17 18 19 20 21 22 23 24 25 26 27 28 29 30 31 32 33 34 35 36 37 38 39 40 41 42 43 44 45 46 47 48 49 50
437
ASUS41 KCLE 080200
RWRCLE
OHIO REGIONAL WEATHER ROUNDUP
NATIONAL WEATHER SERVICE WILMINGTON, OH
900 PM EST SUN FEB 07 2016

NOTE: "FAIR" INDICATES FEW OR NO CLOUDS BELOW 12,000 FEET WITH NO
SIGNIFICANT WEATHER AND/OR OBSTRUCTIONS TO VISIBILITY.

OHZ001>008-015>018-024>027-034-035-043-044-080300-
   NORTHWEST OHIO

CITY           SKY/WX    TMP DP  RH WIND       PRES   REMARKS
DEFIANCE       CLOUDY    44  32  62 SW3       29.77F
FINDLAY        CLOUDY    45  28  51 S13       29.76F
TOLEDO EXPRESS CLOUDY    46  29  51 SW12      29.75F
TOLEDO EXEC    CLOUDY    45  29  53 S10       29.76F
LIMA           CLOUDY    45  27  49 S12       29.77F
$$

OHZ009>014-019>023-028>033-038-089-080300-
   NORTHEAST OHIO

CITY           SKY/WX    TMP DP  RH WIND       PRES   REMARKS
CLE-HOPKINS    CLOUDY    46  25  43 S10       29.84F
CLE-LAKEFRONT  CLOUDY    49  26  41 S8        29.81F
CUY CO. ARPT   MOCLDY    46  28  49 S14       29.83F
LORAIN-ELYRIA  CLOUDY    45  24  43 SW10      29.81F
ASHTABULA      FAIR      43  27  53 S8        29.85F
AKRON-CANTON   CLOUDY    40  24  53 S7        29.84F
WOOSTER        NOT AVBL
MANSFIELD      CLOUDY    43  24  47 S12       29.81F
YOUNGSTOWN     CLOUDY    43  24  47 S5        29.85F
$$

OHZ042-051>053-060>062-070>072-077>081-080300-
  SOUTHWEST OHIO

CITY           SKY/WX    TMP DP  RH WIND       PRES   REMARKS
CINC-COVINGTON MOCLDY    46  21  37 S8        29.84F
CINC-LUNKEN    FAIR      44  24  45 S9        29.86F
HAMILTON       CLOUDY    48  22  35 S6        29.84F
DAYTON         NOT AVBL
WRIGHT-PAT AFB MOCLDY    47  20  34 S12       29.81F
DAYTON GENERAL CLOUDY    45  22  40 S8        29.82F
WILMINGTON     FAIR      40  25  55 S7        29.84F
$$

OHZ036-037-039>041-045>050-054>059-063>069-073>076-082>088-080300-
  CENTRAL AND SOUTHEAST OHIO

CITY           SKY/WX    TMP DP  RH WIND       PRES   REMARKS
COLUMBUS       MOCLDY    41  20  43 S5        29.84F
OSU AIRPORT    MOCLDY    44  22  41 S10       29.83F
BOLTON FIELD   NOT AVBL
RICKENBACK AFB NOT AVBL
NEWARK         FAIR      43  24  47 SW5       29.84F
MARION         CLOUDY    43  25  49 S10       29.82F
LANCASTER      FAIR      43  23  45 S5        29.86F
ZANESVILLE     FAIR      46  22  38 S5        29.86F
NEW PHILLY     FAIR      35  26  69 CALM      29.86F
$$




USA.gov is the U.S. government's official web portal to all federal, state and local government web resources and services.